TimeEST,TemperatureF,Dew PointF,Humidity,Sea Level PressureIn,VisibilityMPH,Wind Direction,Wind SpeedMPH,Gust SpeedMPH,PrecipitationIn,Events,Conditions,WindDirDegrees,DateUTC
12:55 AM,30.2,28.4,93,30.43,10.0,Calm,Calm,-,N/A,,Clear,0,2013-01-08 05:55:00
1:55 AM,29.1,27.3,93,30.43,10.0,Calm,Calm,-,N/A,,Scattered Clouds,0,2013-01-08 06:55:00
2:13 AM,30.2,28.4,93,30.43,6.0,Calm,Calm,-,N/A,,Mostly Cloudy,0,2013-01-08 07:13:00
2:14 AM,30.2,28.4,93,30.43,6.0,Calm,Calm,-,N/A,,Mostly Cloudy,0,2013-01-08 07:14:00
2:17 AM,30.2,28.4,93,30.42,6.0,Calm,Calm,-,N/A,,Mostly Cloudy,0,2013-01-08 07:17:00
2:19 AM,30.2,28.4,93,30.42,7.0,Calm,Calm,-,N/A,,Overcast,0,2013-01-08 07:19:00
2:55 AM,32.0,29.8,92,30.41,8.0,Calm,Calm,-,N/A,,Overcast,0,2013-01-08 07:55:00
3:00 AM,32.0,30.2,93,30.41,6.0,Calm,Calm,-,N/A,,Overcast,0,2013-01-08 08:00:00
3:07 AM,32.0,30.2,93,30.41,6.0,Calm,Calm,-,N/A,,Overcast,0,2013-01-08 08:07:00
3:09 AM,32.0,30.2,93,30.41,6.0,Calm,Calm,-,N/A,,Overcast,0,2013-01-08 08:09:00
3:10 AM,32.0,30.2,93,30.40,6.0,Calm,Calm,-,N/A,,Overcast,0,2013-01-08 08:10:00
3:21 AM,32.0,30.2,93,30.40,6.0,Calm,Calm,-,N/A,,Overcast,0,2013-01-08 08:21:00
3:22 AM,32.0,30.2,93,30.40,6.0,Calm,Calm,-,N/A,,Overcast,0,2013-01-08 08:22:00
3:26 AM,32.0,30.2,93,30.40,6.0,Calm,Calm,-,N/A,,Overcast,0,2013-01-08 08:26:00
3:37 AM,33.8,30.2,87,30.41,6.0,Calm,Calm,-,N/A,,Overcast,0,2013-01-08 08:37:00
3:44 AM,33.8,30.2,87,30.40,6.0,Calm,Calm,-,N/A,,Overcast,0,2013-01-08 08:44:00
3:55 AM,34.0,31.5,90,30.41,10.0,Calm,Calm,-,N/A,,Overcast,0,2013-01-08 08:55:00
4:41 AM,35.6,32.0,87,30.40,6.0,Calm,Calm,-,N/A,,Overcast,0,2013-01-08 09:41:00
4:44 AM,35.6,32.0,87,30.40,6.0,Calm,Calm,-,N/A,,Overcast,0,2013-01-08 09:44:00
4:47 AM,35.6,32.0,87,30.41,6.0,Calm,Calm,-,N/A,,Overcast,0,2013-01-08 09:47:00
4:48 AM,35.6,32.0,87,30.41,6.0,Calm,Calm,-,N/A,,Overcast,0,2013-01-08 09:48:00
4:55 AM,35.2,32.9,91,30.40,8.0,ENE,3.5,-,N/A,,Overcast,70,2013-01-08 09:55:00
5:55 AM,36.7,33.6,89,30.41,10.0,Calm,Calm,-,N/A,,Overcast,0,2013-01-08 10:55:00
6:55 AM,38.7,34.5,85,30.42,10.0,Calm,Calm,-,N/A,,Overcast,0,2013-01-08 11:55:00
7:55 AM,39.4,34.5,83,30.43,10.0,ENE,3.5,-,N/A,,Overcast,60,2013-01-08 12:55:00
8:55 AM,40.6,34.7,79,30.47,10.0,Calm,Calm,-,N/A,,Overcast,0,2013-01-08 13:55:00
9:55 AM,43.2,35.1,73,30.47,10.0,Calm,Calm,-,N/A,,Overcast,0,2013-01-08 14:55:00
10:55 AM,46.9,34.9,63,30.46,10.0,East,5.8,-,N/A,,Overcast,80,2013-01-08 15:55:00
11:55 AM,50.2,35.4,57,30.43,10.0,ENE,4.6,-,N/A,,Mostly Cloudy,60,2013-01-08 16:55:00
12:55 PM,54.3,37.2,52,30.41,10.0,ENE,4.6,-,N/A,,Scattered Clouds,60,2013-01-08 17:55:00
1:55 PM,55.8,38.8,53,30.39,10.0,East,4.6,-,N/A,,Mostly Cloudy,100,2013-01-08 18:55:00
2:55 PM,56.8,40.5,54,30.38,10.0,Calm,Calm,-,N/A,,Clear,0,2013-01-08 19:55:00
3:55 PM,56.8,40.6,55,30.37,10.0,ENE,3.5,-,N/A,,Overcast,60,2013-01-08 20:55:00
4:55 PM,54.9,41.9,62,30.38,10.0,NE,3.5,-,N/A,,Mostly Cloudy,50,2013-01-08 21:55:00
5:55 PM,52.9,41.4,65,30.40,10.0,East,3.5,-,N/A,,Mostly Cloudy,80,2013-01-08 22:55:00
6:55 PM,50.5,40.6,69,30.39,10.0,ESE,3.5,-,N/A,,Scattered Clouds,120,2013-01-08 23:55:00
7:55 PM,45.7,40.3,81,30.41,10.0,Calm,Calm,-,N/A,,Clear,0,2013-01-09 00:55:00
8:55 PM,45.1,41.0,85,30.42,10.0,Calm,Calm,-,N/A,,Overcast,0,2013-01-09 01:55:00
9:55 PM,45.7,41.4,85,30.40,10.0,East,3.5,-,N/A,,Overcast,90,2013-01-09 02:55:00
10:55 PM,46.2,41.4,83,30.40,10.0,Calm,Calm,-,N/A,,Overcast,0,2013-01-09 03:55:00
11:55 PM,46.8,42.6,85,30.40,10.0,Calm,Calm,-,N/A,,Overcast,0,2013-01-09 04:55:00